www.pogodaiklimat.ru

Погода и климат >> Архив погоды >> Пакистан >> Nawabshah


ПОГОДА в Nawabshah

  • Прогноз погоды в Nawabshah
  • Монитор погоды в Nawabshah
  • Климат города

АРХИВ ПОГОДЫ в Nawabshah

Время (UTC), дата Ветер
(напр.,м/с)
 
Видим.   Явления Облачность Т
(С)
Тd
(С)
f
(%)
Тe
(С)
Тes
(С)
Комфортность P
(гПа)
Po
(гПа)
Тmin
(С)
Tmax
(С)
R
(мм)
R24
(мм)
S
(см)
21 12.08 Ю 5 4000 м мгла ясно +30.0 +23.5 68 +41 +41 опасность
перегрева
994.8 995.0
00 13.08 ЮВ 3 4000 м мгла ясно +29.0 +24.0 74 +40 +40 очень
душно
993.9 990.7
03 13.08 Ю 3 4000 м мгла ясно +30.0 +24.3 72 +42 +46 опасность
перегрева
995.9 992.7 +28.0
06 13.08 Ю 5 4000 м мгла ясно +36.0 +24.0 50 +47 +57 опасность
перегрева
997.9 994.8
09 13.08 Ю 2 4000 м мгла ясно +40.5 +23.7 39 +51 +69 опасность
перегрева
996.3 1000.0
12 13.08 Ю 5 4000 м мгла ясно +40.0 +25.6 44 +54 +56 опасность
перегрева
995.2 992.1 +42.5
15 13.08 Ю 5 4000 м мгла ясно +35.0 +24.5 55 +48 +48 опасность
перегрева
996.7 997.0
18 13.08 Ю 5 4000 м мгла ясно +32.0 +22.6 58 +42 +42 опасность
перегрева
998.6 995.3
21 13.08 Ю 4 4000 м мгла ясно +28.0 +20.5 64 +35 +35 очень
душно
998.1 998.0
00 14.08 Ю 3 4000 м мгла ясно +27.0 +21.0 70 +34 +34 очень
душно
997.5 994.3
03 14.08 Ю 2 4000 м мгла ясно +30.0 +22.8 65 +40 +44 очень
душно
999.6 996.3 +26.5
06 14.08 ЮВ 3 4000 м ясно +35.0 +22.9 50 +45 +60 опасность
перегрева
1002.1 998.9
09 14.08 ЮВ 3 4000 м ясно +39.5 +23.3 40 +49 +64 опасность
перегрева
1000.6 1001.0
12 14.08 Ю 3 4000 м ясно +39.0 +23.5 41 +49 +52 опасность
перегрева
999.8 996.7 +40.5
15 14.08 ЮВ 3 4000 м 4/0
[Ac trans]
+35.0 +23.7 52 +46 +46 опасность
перегрева
1001.0 1001.0
18 14.08 Ю 4 4000 м мгла 3/0
[Ac trans]
+32.0 +23.4 60 +43 +43 опасность
перегрева
1003.2 1000.0
21 14.08 Ю 4 4000 м мгла ясно +30.0 +22.8 65 +40 +40 очень
душно
1001.9 1002.0
00 15.08 Ю 3 4000 м мгла ясно +28.0 +22.1 70 +36 +36 очень
душно
1000.6 997.4
03 15.08 Ю 4 4000 м ясно +30.5 +22.8 64 +40 +43 очень
душно
1004.3 1001.1 +27.0
06 15.08 ЮЗ 4 4000 м ясно +37.0 +24.4 49 +49 +62 опасность
перегрева
1005.1 1002.0
09 15.08 ЮЗ 3 4000 м 3/3 1050 м
[Sc]
+40.0 +23.9 40 +51 +61 опасность
перегрева
1002.9 1003.0
12 15.08 ЮВ 2 4000 м ясно +39.0 +23.5 41 +49 +53 опасность
перегрева
1000.6 997.5 +40.5
15 15.08 ЮВ 3 4000 м мгла 3/0
[Ac trans]
+34.5 +23.9 54 +46 +46 опасность
перегрева
1001.3 1000.0
18 15.08 Ю 4 4000 м мгла ясно +31.0 +23.1 63 +41 +41 опасность
перегрева
1002.5 999.3
21 15.08 Ю 3 4000 м мгла ясно +29.0 +22.4 68 +38 +38 очень
душно
1001.6 1002.0
00 16.08 ЮВ 1 4000 м мгла ясно +28.0 +22.1 70 +36 +36 очень
душно
1000.3 997.1
03 16.08 ЮВ 3 4000 м мгла ясно +29.0 +22.4 68 +38 +42 очень
душно
1001.4 998.2 +27.5
06 16.08 Ю 4 4000 м ясно +36.0 +24.0 50 +47 +60 опасность
перегрева
1002.1 999.0
09 16.08 Ю 3 4000 м ясно +40.0 +23.1 38 +49 +65 опасность
перегрева
999.8 1000.0
12 16.08 ЮВ 3 4000 м ясно +41.0 +22.6 35 +49 +53 опасность
перегрева
997.6 994.5 +41.5
15 16.08 ЮВ 3 4000 м ясно +36.0 +23.2 48 +46 +46 опасность
перегрева
998.5 1000.0
18 16.08 Ю 3 4000 м ясно +32.0 +22.6 58 +42 +42 опасность
перегрева
999.6 996.4
21 16.08 Ю 5 4000 м ясно +30.0 +22.8 65 +40 +40 очень
душно
998.5 999.0
00 17.08 Ю 3 4000 м ясно +28.0 +22.9 74 +37 +37 очень
душно
997.5 994.3
03 17.08 Ю 2 4000 м ясно +29.0 +22.4 68 +38 +43 очень
душно
998.0 994.8 +27.1
06 17.08 Ю 3 4000 м ясно +36.0 +24.9 53 +49 +66 опасность
перегрева
999.0 995.9
09 17.08 ЮВ 2 4000 м ясно +40.5 +23.7 39 +51 +69 опасность
перегрева
996.8 1000.0
12 17.08 Ю 4 4000 м ясно +40.0 +23.1 38 +49 +52 опасность
перегрева
995.5 992.4 +42.2
15 17.08 ЮВ 5 4000 м ясно +35.0 +23.7 52 +46 +46 опасность
перегрева
996.5 997.0
18 17.08 ЮВ 3 4000 м ясно +31.0 +22.3 60 +40 +40 очень
душно
998.9 995.7
21 17.08 Ю 2 4000 м ясно +29.0 +22.4 68 +38 +38 очень
душно
997.9 1000.0
00 18.08 Ю 2 4000 м ясно +27.5 +23.1 77 +37 +37 очень
душно
996.5 993.3
03 18.08 Ю 4 4000 м ясно +28.0 +22.1 70 +36 +39 очень
душно
997.3 994.1 +26.5
06 18.08 ЮВ 5 4000 м ясно +34.0 +24.1 56 +46 +55 опасность
перегрева
999.9 996.7
09 18.08 Ю 5 4000 м ясно +39.0 +23.5 41 +49 +58 опасность
перегрева
998.0 998.0
12 18.08 ЮВ 2 4000 м ясно +39.0 +23.5 41 +49 +53 опасность
перегрева
996.5 993.4 +40.5
15 18.08 ЮВ 3 4000 м 3/0
[Ac trans]
+34.0 +23.3 54 +45 +45 опасность
перегрева
998.7 1000.0
18 18.08 ЮВ 4 4000 м ясно +31.5 +23.6 63 +43 +43 опасность
перегрева
1000.7 997.5
21 18.08 Ю 3 4000 м ясно +29.0 +22.4 68 +38 +38 очень
душно
999.4 999.0
00 19.08 Ю 3 4000 м ясно +27.0 +21.8 73 +35 +35 очень
душно
997.9 994.7
03 19.08 Ю 3 4000 м 3/0
[Ac trans]
+28.0 +21.3 67 +35 +38 очень
душно
1000.5 997.3 +25.5
06 19.08 ЮВ 4 4000 м 4/0
[]
+32.5 +27 +37 жарко 1002.4 999.2
09 19.08 ЮВ 2 4000 м 5/0
[Ac trans Ci fib]
+36.0 +23.2 48 +46 +60 опасность
перегрева
1000.7 1000.0
12 19.08 Ю 4 4000 м 8/3 1050 м
[Sc Ac trans]
+35.0 +21.1 44 +42 +43 опасность
перегрева
999.8 996.6 +37.5
15 19.08 ЮВ 2 4000 м 5/4 300 м
[Sc Ac trans]
+33.0 +22.1 53 +42 +42 опасность
перегрева
1000.6 1000.0

 

Местоположение метеостанции Nawabshah (Пакистан): широта 26.25 долгота 68.37 высота над уровнем моря 38 м.

В архиве по умолчанию представлена погода в Nawabshah за последнюю неделю. Архивные данные за месяц целиком и за предыдущие месяцы, начиная с января 2011 года, Вы можете получить, выбрав интересующий диапазон дат из раскрывающегося списка и нажав кнопку "Ввод!".

Внимание! Время в таблицах - всемирное. Для получения местного времени необходимо прибавить поправку, которая в Nawabshah равна 5 ч.

Смотрите также архив погоды в соседних городах и на ближайших метеорологических станциях:

Погода в Pad Idan (Пакистан) (71 км)
Погода в Hyderabad Airport (Пакистан) (97 км)
Погода в Chhor (Пакистан) (163 км)
Погода в Rohri (Пакистан) (166 км)
Погода в Badin (Пакистан) (188 км)
Погода в Karachi (Пакистан) (195 км)
Погода в Jacobabad (Пакистан) (228 км)
Погода в Khuzdar (Пакистан) (246 км)
Погода в Jaisalmer (Rajasthan, Индия) (264 км)
Погода в Barmer (Rajasthan, Индия) (306 км)

Пояснения к столбцам:

Ветер - указаны скорость ветра в м/с - средняя за 10 мин, порывы в срок и между сроками (в фигурных скобках) и направление, откуда дует ветер: С - северный, СВ - северо-восточный, В - восточный, ЮВ - юго-восточный, Ю - южный, ЮЗ - юго-западный, З - западный, СЗ - северо-западный.
Видимость - горизонтальная дальность видимости в метрах или километрах. При видимости от 1 до 10 км при отсутствии осадков обычно наблюдается дымка, при ухудшении видимости до 1 км и менее - туман. В сухую погоду видимость может ухудшаться дымом, пылью или мглою.
Явления - указаны атмосферные явления, наблюдавшиеся в срок или в последний час перед сроком; фигурными скобками обозначены явления, наблюдавшиеся между сроками (за 1-3 часа до срока); квадратными скобками обозначены град или гололедные отложения с указанием их диаметра в мм.
Облачность - указаны через наклонную черту общая и нижняя облачность в баллах и высота нижней границы облаков в метрах; квадратными скобками обозначены формы облаков: Ci - перистые, Cs - перисто-слоистые, Cc - перисто-кучевые, Ac - высококучевые, As - высокослоистые, Sc - слоисто-кучевые, Ns - слоисто-дождевые, Cu - кучевые, Cb - кучево-дождевые. Подробнее классификацию облаков см. в Атласе облаков (PDF).
T - Температура воздуха - температура, измеренная на высоте 2 м над землей.
Td - Температура точки росы - температура, при понижении до которой содержащийся в воздухе водяной пар достигнет насыщения.
f - Относительная влажность воздуха - влажноcть воздуха, измеренная на высоте 2 м над землей.
Te - Эффективная температура - температура, которую ощущает одетый по сезону человек в тени. Характеристика душности погоды. При расчете учитывается влияние влажности воздуха и скорости ветра на теплоощущения человека.
Tes - Эффективная температура на солнце - температура, которую ощущает человек, с поправкой на солнечный нагрев. Характеристика знойности погоды. Зависит от высоты солнца над горизонтом, облачности и скорости ветра. Ночью, в пасмурную погоду, а также при ветре 12 м/с и более поправка равна нулю.
P - Атмосферное давление - приведенное к уровню моря атмосферное давление.
Po - Атмосферное давление - измеренное на уровне метеостанции атмосферное давление.
Tmin - Минимальная температура - минимум температуры воздуха на высоте 2 м над землей.
Tmax - Максимальная температура - максимум температуры воздуха на высоте 2 м над землей.
R - Количество осадков - Количество выпавших осадков за период времени, мм. При наведении курсора мыши на число - период времени, за который выпало указанное количество осадков.
R24 - Количество осадков - Количество выпавших осадков за 24 часа, мм.
S - Снежный покров - Высота снежного покрова, см. При наведении курсора мыши на число - состояние снежного покрова и степень покрытия местности в баллах.